contact:dominique.lefevre@mio.osupytheas.fr, maurice.libes@osupytheas.fr, didier.mallarino@osupytheas.fr
Project:EMSO http://www.emso-fr.org/EMSO-France
Depth: 2436.0 m
Title:EMSO Ligure Ouest : Data MII capteur AQUADOPP
Date,Latitude,Longitude,X_East,Y_North,Z_Up,Amplitude_X,Amplitude_Y,Amplitude_Z,Batterie,SoundSpeed,Heading,Pitch,Roll,Pressure,TIS,Speed,Direction
, degrees North, degrees East, m.s-1, m.s-1,m.s-1, 1, 1, 1, Volt, m.s-1, degree, degree, degree, dbar, degree_C, m.s-1, degree
2022-03-25T00:04:03,42.805,6.029,-0.019,-0.002,0.025,100.0,100.0,101.0,13.4,1505.2,329.9,-0.8,1.8,2470.744,13.29,0.019,264.0
2022-03-25T00:07:03,42.805,6.029,-0.031,-0.009,-0.002,100.0,100.0,100.0,13.3,1505.2,325.2,-0.8,1.8,2470.725,13.29,0.032,253.8
2022-03-25T00:10:03,42.805,6.029,-0.02,-0.02,-0.01,100.0,100.0,99.0,13.4,1505.2,324.7,-0.7,1.8,2470.72,13.29,0.028,225.0
2022-03-25T00:13:03,42.805,6.029,-0.008,-0.01,0.008,101.0,104.0,101.0,13.3,1505.2,323.9,-0.7,1.8,2470.714,13.29,0.012,218.7
2022-03-25T00:16:03,42.805,6.029,-0.005,0.0,-0.001,101.0,101.0,100.0,13.3,1505.2,325.7,-0.8,1.8,2470.726,13.29,0.005,270.0
2022-03-25T00:19:03,42.805,6.029,-0.022,0.0,-0.028,102.0,100.0,100.0,13.4,1505.2,331.5,-0.7,1.8,2470.704,13.29,0.022,270.0
2022-03-25T00:22:03,42.805,6.029,-0.015,-0.013,-0.015,100.0,101.0,100.0,13.4,1505.2,326.3,-0.8,1.8,2470.699,13.29,0.019,229.1
2022-03-25T00:25:03,42.805,6.029,-0.019,-0.018,-0.008,101.0,99.0,101.0,13.4,1505.2,325.0,-0.8,1.8,2470.721,13.29,0.026,226.5
2022-03-25T00:28:03,42.805,6.029,-0.009,0.0,-0.02,102.0,101.0,100.0,13.4,1505.2,325.7,-0.8,1.8,2470.667,13.29,0.009,270.0
2022-03-25T00:31:03,42.805,6.029,-0.006,-0.036,-0.041,100.0,101.0,99.0,13.4,1505.2,323.9,-0.8,1.8,2470.71,13.29,0.036,189.5
2022-03-25T00:34:03,42.805,6.029,-0.01,-0.005,0.037,101.0,101.0,100.0,13.4,1505.2,328.3,-0.8,1.8,2470.712,13.29,0.011,243.4
2022-03-25T00:37:03,42.805,6.029,-0.016,-0.023,-0.005,100.0,103.0,99.0,13.4,1505.2,330.6,-0.7,1.8,2470.735,13.29,0.028,214.8
2022-03-25T00:40:03,42.805,6.029,-0.027,-0.006,0.019,102.0,100.0,101.0,13.4,1505.2,324.8,-0.7,1.8,2470.682,13.29,0.027,257.5
2022-03-25T00:43:03,42.805,6.029,-0.019,-0.017,-0.002,101.0,100.0,100.0,13.4,1505.2,325.3,-0.7,1.8,2470.736,13.29,0.025,228.2
2022-03-25T00:46:03,42.805,6.029,-0.021,-0.011,0.036,99.0,102.0,101.0,13.4,1505.2,325.8,-0.8,1.8,2470.722,13.29,0.023,242.4
2022-03-25T00:49:03,42.805,6.029,-0.002,0.013,0.046,101.0,101.0,100.0,13.3,1505.2,322.9,-0.8,1.9,2470.717,13.29,0.013,351.3
2022-03-25T00:52:03,42.805,6.029,-0.023,-0.001,0.01,101.0,102.0,100.0,13.4,1505.2,324.8,-0.8,1.8,2470.708,13.29,0.023,267.5
2022-03-25T00:55:03,42.805,6.029,-0.008,0.004,-0.018,100.0,101.0,100.0,13.4,1505.2,325.6,-0.8,1.8,2470.714,13.29,0.008,296.6
2022-03-25T00:58:03,42.805,6.029,-0.023,0.002,0.009,100.0,101.0,100.0,13.4,1505.2,322.9,-0.8,1.8,2470.709,13.29,0.023,275.0
2022-03-25T01:04:03,42.805,6.029,-0.029,-0.015,-0.019,102.0,103.0,101.0,13.3,1505.2,328.4,-0.8,1.8,2470.755,13.29,0.032,242.6
2022-03-25T01:07:03,42.805,6.029,-0.018,-0.003,0.003,100.0,100.0,100.0,13.4,1505.2,332.2,-0.8,1.8,2470.738,13.29,0.018,260.5
2022-03-25T01:10:03,42.805,6.029,-0.035,-0.005,0.008,101.0,99.0,100.0,13.4,1505.2,324.7,-0.8,1.8,2470.757,13.29,0.035,261.9
2022-03-25T01:13:03,42.805,6.029,-0.03,-0.002,-0.001,100.0,101.0,100.0,13.4,1505.2,332.4,-0.8,1.8,2470.738,13.29,0.03,266.2
2022-03-25T01:16:03,42.805,6.029,-0.004,-0.009,-0.009,103.0,100.0,99.0,13.4,1505.2,330.7,-0.8,1.8,2470.736,13.29,0.009,204.0
2022-03-25T01:19:03,42.805,6.029,-0.011,-0.002,0.014,101.0,100.0,101.0,13.4,1505.2,325.9,-0.7,1.8,2470.739,13.29,0.011,259.7
2022-03-25T01:22:03,42.805,6.029,-0.017,-0.016,0.019,100.0,102.0,100.0,13.4,1505.2,323.6,-0.7,1.8,2470.73,13.29,0.023,226.7
2022-03-25T01:25:03,42.805,6.029,-0.021,-0.007,-0.008,101.0,100.0,100.0,13.4,1505.2,325.3,-0.7,1.8,2470.739,13.29,0.022,251.6
2022-03-25T01:28:03,42.805,6.029,-0.014,-0.033,0.015,101.0,101.0,100.0,13.4,1505.2,329.0,-0.7,1.8,2470.725,13.29,0.035,203.0
2022-03-25T01:31:03,42.805,6.029,-0.029,-0.026,-0.025,100.0,100.0,101.0,13.3,1505.2,324.6,-0.7,1.8,2470.698,13.29,0.038,228.1
2022-03-25T01:34:03,42.805,6.029,-0.003,-0.019,-0.021,100.0,100.0,100.0,13.4,1505.2,331.8,-0.8,1.8,2470.742,13.29,0.019,189.0
2022-03-25T01:37:03,42.805,6.029,-0.026,-0.002,-0.01,101.0,99.0,101.0,13.3,1505.2,328.6,-0.8,1.8,2470.712,13.29,0.026,265.6
2022-03-25T01:40:03,42.805,6.029,-0.017,-0.004,0.006,100.0,100.0,101.0,13.4,1505.2,322.7,-0.7,1.8,2470.719,13.29,0.017,256.8
2022-03-25T01:43:03,42.805,6.029,-0.023,-0.009,0.001,100.0,101.0,100.0,13.4,1505.2,326.5,-0.7,1.8,2470.721,13.29,0.024,248.6
2022-03-25T01:46:03,42.805,6.029,-0.009,-0.029,-0.022,100.0,100.0,100.0,13.4,1505.2,326.7,-0.7,1.8,2470.739,13.29,0.03,197.2
2022-03-25T01:49:03,42.805,6.029,-0.048,-0.014,0.012,101.0,101.0,100.0,13.4,1505.2,325.6,-0.7,1.9,2470.716,13.29,0.05,253.7
2022-03-25T01:52:03,42.805,6.029,-0.03,-0.027,-0.028,98.0,103.0,100.0,13.3,1505.2,329.7,-0.7,1.8,2470.733,13.29,0.04,228.0
2022-03-25T01:55:03,42.805,6.029,-0.008,-0.001,0.022,100.0,101.0,101.0,13.4,1505.2,331.8,-0.8,1.8,2470.698,13.29,0.008,262.9
2022-03-25T01:58:03,42.805,6.029,-0.013,-0.014,0.03,99.0,101.0,100.0,13.4,1505.2,325.9,-0.7,1.8,2470.732,13.29,0.019,222.9
2022-03-25T02:04:03,42.805,6.029,-0.028,-0.028,-0.01,100.0,103.0,100.0,13.4,1505.2,322.6,-0.8,1.8,2470.767,13.29,0.039,225.0
2022-03-25T02:07:03,42.805,6.029,-0.009,-0.008,0.0,102.0,100.0,100.0,13.3,1505.2,325.9,-0.7,1.8,2470.75,13.29,0.012,228.4
2022-03-25T02:10:03,42.805,6.029,0.001,-0.023,0.018,100.0,100.0,100.0,13.3,1505.2,324.7,-0.7,1.8,2470.759,13.29,0.023,177.5
2022-03-25T02:13:03,42.805,6.029,-0.01,0.008,0.034,98.0,101.0,101.0,13.4,1505.2,330.1,-0.7,1.8,2470.731,13.29,0.012,308.7
2022-03-25T02:16:03,42.805,6.029,-0.034,-0.01,-0.023,103.0,100.0,100.0,13.4,1505.2,330.8,-0.8,1.8,2470.775,13.29,0.035,253.6
2022-03-25T02:19:03,42.805,6.029,-0.012,-0.012,0.007,106.0,100.0,100.0,13.4,1505.2,329.7,-0.8,1.8,2470.737,13.29,0.016,225.0
2022-03-25T02:22:03,42.805,6.029,-0.016,-0.019,-0.01,101.0,102.0,99.0,13.4,1505.2,332.0,-0.7,1.8,2470.702,13.29,0.024,220.1
2022-03-25T02:25:03,42.805,6.029,-0.03,-0.007,-0.003,101.0,102.0,99.0,13.3,1505.2,327.3,-0.7,1.8,2470.714,13.29,0.03,256.9
2022-03-25T02:28:03,42.805,6.029,-0.045,-0.028,-0.049,101.0,102.0,100.0,13.4,1505.2,328.5,-0.8,1.8,2470.718,13.29,0.053,238.1
2022-03-25T02:31:03,42.805,6.029,-0.011,0.003,-0.007,102.0,98.0,101.0,13.3,1505.2,325.9,-0.8,1.8,2470.706,13.29,0.011,285.3
2022-03-25T02:34:03,42.805,6.029,-0.024,-0.027,-0.02,100.0,102.0,100.0,13.4,1505.2,328.5,-0.7,1.9,2470.71,13.29,0.036,221.6
2022-03-25T02:37:03,42.805,6.029,-0.033,-0.016,-0.037,101.0,100.0,100.0,13.4,1505.2,332.2,-0.8,1.8,2470.715,13.29,0.036,244.1
2022-03-25T02:40:03,42.805,6.029,-0.008,0.0,0.013,99.0,100.0,101.0,13.4,1505.2,325.2,-0.8,1.8,2470.709,13.29,0.008,270.0
2022-03-25T02:43:03,42.805,6.029,-0.022,0.014,0.003,102.0,102.0,100.0,13.3,1505.2,328.9,-0.8,1.9,2470.726,13.29,0.026,302.5
2022-03-25T02:46:03,42.805,6.029,-0.012,0.0,0.002,103.0,100.0,100.0,13.4,1505.2,325.8,-0.8,1.8,2470.705,13.29,0.012,270.0
2022-03-25T02:49:03,42.805,6.029,-0.014,-0.01,0.009,100.0,102.0,100.0,13.4,1505.2,329.4,-0.7,1.8,2470.691,13.29,0.017,234.5
2022-03-25T02:52:03,42.805,6.029,-0.041,0.012,0.01,102.0,101.0,100.0,13.3,1505.2,323.1,-0.7,1.8,2470.732,13.29,0.042,286.3
2022-03-25T02:55:03,42.805,6.029,-0.006,-0.011,-0.017,102.0,101.0,100.0,13.4,1505.2,325.7,-0.8,1.8,2470.708,13.29,0.012,208.6
2022-03-25T02:58:03,42.805,6.029,-0.029,-0.001,0.0,103.0,99.0,100.0,13.4,1505.2,326.0,-0.8,1.8,2470.705,13.29,0.029,268.0
2022-03-25T03:04:03,42.805,6.029,-0.003,-0.017,-0.005,97.0,101.0,101.0,13.4,1505.2,323.1,-0.8,1.8,2470.763,13.29,0.017,190.0
2022-03-25T03:07:03,42.805,6.029,-0.018,-0.007,0.006,99.0,104.0,101.0,13.4,1505.2,323.1,-0.8,1.8,2470.782,13.29,0.019,248.8
2022-03-25T03:10:03,42.805,6.029,-0.015,0.0,0.022,102.0,100.0,101.0,13.3,1505.2,326.4,-0.8,1.8,2470.742,13.29,0.015,270.0
2022-03-25T03:13:03,42.805,6.029,-0.026,-0.009,-0.033,101.0,101.0,99.0,13.4,1505.2,322.9,-0.8,1.8,2470.765,13.29,0.027,250.9
2022-03-25T03:16:03,42.805,6.029,-0.015,0.011,0.009,101.0,100.0,100.0,13.4,1505.2,324.2,-0.8,1.8,2470.748,13.29,0.018,306.3
2022-03-25T03:19:03,42.805,6.029,0.022,-0.017,0.014,101.0,100.0,101.0,13.3,1505.2,324.2,-0.8,1.7,2470.76,13.29,0.027,127.7
2022-03-25T03:22:03,42.805,6.029,0.008,-0.006,0.027,101.0,102.0,100.0,13.4,1505.2,326.9,-0.8,1.8,2470.715,13.29,0.01,126.9
2022-03-25T03:25:03,42.805,6.029,-0.032,-0.008,-0.015,100.0,100.0,101.0,13.4,1505.2,331.3,-0.8,1.8,2470.744,13.29,0.032,256.0
2022-03-25T03:28:03,42.805,6.029,-0.03,-0.013,-0.016,101.0,100.0,100.0,13.4,1505.2,322.3,-0.8,1.8,2470.736,13.29,0.032,246.6
2022-03-25T03:31:03,42.805,6.029,-0.034,-0.006,0.013,98.0,101.0,101.0,13.4,1505.2,328.0,-0.8,1.8,2470.666,13.29,0.034,260.0
2022-03-25T03:34:03,42.805,6.029,-0.008,0.006,-0.014,100.0,101.0,100.0,13.3,1505.2,329.4,-0.7,1.8,2470.731,13.29,0.01,306.9
2022-03-25T03:37:03,42.805,6.029,-0.026,0.008,0.022,100.0,99.0,100.0,13.4,1505.2,331.1,-0.8,1.8,2470.703,13.29,0.027,287.1
2022-03-25T03:40:03,42.805,6.029,-0.008,0.0,-0.002,99.0,100.0,103.0,13.4,1505.2,326.9,-0.8,1.8,2470.728,13.29,0.008,270.0
2022-03-25T03:43:03,42.805,6.029,-0.028,-0.004,0.011,100.0,102.0,101.0,13.3,1505.2,326.9,-0.8,1.8,2470.74,13.29,0.028,261.9
2022-03-25T03:46:03,42.805,6.029,-0.019,-0.016,-0.02,99.0,100.0,101.0,13.4,1505.2,326.1,-0.8,1.8,2470.748,13.29,0.024,229.9
2022-03-25T03:49:03,42.805,6.029,-0.017,-0.005,-0.021,99.0,102.0,101.0,13.3,1505.2,327.1,-0.8,1.8,2470.736,13.29,0.017,253.6
2022-03-25T03:52:03,42.805,6.029,-0.015,-0.012,-0.02,102.0,103.0,100.0,13.4,1505.2,328.9,-0.8,1.8,2470.709,13.29,0.019,231.3
2022-03-25T03:55:03,42.805,6.029,-0.013,-0.016,-0.015,101.0,101.0,100.0,13.4,1505.2,323.6,-0.8,1.8,2470.715,13.29,0.02,219.1
2022-03-25T03:58:03,42.805,6.029,0.0,0.009,0.015,99.0,100.0,101.0,13.4,1505.2,327.3,-0.7,1.8,2470.711,13.29,0.009,0.0
2022-03-25T04:04:03,42.805,6.029,-0.018,-0.023,-0.022,101.0,101.0,100.0,13.3,1505.2,327.9,-0.8,1.8,2470.747,13.29,0.029,218.0
2022-03-25T04:07:03,42.805,6.029,-0.008,0.009,0.012,102.0,100.0,100.0,13.3,1505.2,330.1,-0.7,1.8,2470.765,13.29,0.012,318.4
2022-03-25T04:10:03,42.805,6.029,-0.024,0.006,0.017,99.0,101.0,101.0,13.4,1505.2,331.5,-0.8,1.8,2470.745,13.29,0.024,284.0
2022-03-25T04:13:03,42.805,6.029,-0.025,-0.011,0.002,103.0,99.0,100.0,13.4,1505.2,329.9,-0.8,1.8,2470.739,13.29,0.027,246.3
2022-03-25T04:16:03,42.805,6.029,-0.029,-0.008,-0.015,102.0,99.0,101.0,13.4,1505.2,329.6,-0.8,1.9,2470.695,13.29,0.03,254.6
2022-03-25T04:19:03,42.805,6.029,-0.023,0.008,0.005,101.0,101.0,102.0,13.3,1505.2,326.0,-0.8,1.8,2470.696,13.29,0.024,289.2
2022-03-25T04:22:03,42.805,6.029,-0.041,0.001,-0.023,103.0,100.0,101.0,13.4,1505.2,331.5,-0.8,1.8,2470.74,13.29,0.041,271.4
2022-03-25T04:25:03,42.805,6.029,-0.033,0.013,0.022,100.0,102.0,100.0,13.3,1505.2,324.9,-0.7,1.8,2470.716,13.29,0.035,291.5
2022-03-25T04:28:03,42.805,6.029,-0.032,-0.006,-0.011,102.0,102.0,100.0,13.3,1505.2,331.9,-0.7,1.8,2470.706,13.29,0.032,259.4
2022-03-25T04:31:03,42.805,6.029,-0.018,0.003,-0.01,101.0,101.0,101.0,13.3,1505.2,323.4,-0.8,1.8,2470.693,13.29,0.018,279.5
2022-03-25T04:34:03,42.805,6.029,-0.011,0.0,-0.005,100.0,101.0,101.0,13.4,1505.2,333.2,-0.8,1.8,2470.696,13.29,0.011,270.0
2022-03-25T04:37:03,42.805,6.029,-0.026,-0.02,-0.012,101.0,100.0,100.0,13.3,1505.2,326.3,-0.7,1.8,2470.692,13.29,0.032,232.4
2022-03-25T04:40:03,42.805,6.029,0.003,-0.035,-0.021,101.0,101.0,101.0,13.4,1505.2,324.8,-0.8,1.8,2470.676,13.29,0.035,175.1
2022-03-25T04:43:03,42.805,6.029,-0.007,0.001,0.013,101.0,101.0,99.0,13.4,1505.2,327.6,-0.8,1.8,2470.689,13.29,0.007,278.1
2022-03-25T04:46:03,42.805,6.029,-0.014,0.014,-0.012,99.0,103.0,100.0,13.4,1505.2,330.0,-0.8,1.8,2470.722,13.29,0.019,315.0
2022-03-25T04:49:03,42.805,6.029,-0.031,0.006,0.013,101.0,100.0,100.0,13.4,1505.2,332.2,-0.8,1.8,2470.676,13.29,0.031,281.0
2022-03-25T04:52:03,42.805,6.029,-0.043,-0.001,-0.006,102.0,102.0,100.0,13.4,1505.2,323.0,-0.8,1.8,2470.66,13.29,0.043,268.7
2022-03-25T04:55:03,42.805,6.029,-0.021,-0.019,0.007,101.0,102.0,100.0,13.3,1505.2,325.9,-0.8,1.8,2470.693,13.29,0.028,227.9
2022-03-25T04:58:03,42.805,6.029,-0.048,0.006,0.027,102.0,101.0,99.0,13.4,1505.2,324.8,-0.7,1.8,2470.669,13.29,0.048,277.1
2022-03-25T05:04:03,42.805,6.029,-0.032,-0.005,-0.017,101.0,100.0,100.0,13.4,1505.2,327.4,-0.7,1.8,2470.722,13.29,0.032,261.1
2022-03-25T05:07:03,42.805,6.029,-0.031,0.0,0.024,99.0,99.0,101.0,13.3,1505.2,329.4,-0.8,1.9,2470.701,13.29,0.03,270.0
2022-03-25T05:10:03,42.805,6.029,-0.005,0.012,0.018,101.0,100.0,100.0,13.4,1505.2,330.2,-0.8,1.8,2470.721,13.29,0.013,337.4
2022-03-25T05:13:03,42.805,6.029,-0.021,-0.01,-0.012,100.0,99.0,101.0,13.4,1505.2,327.7,-0.8,1.8,2470.633,13.29,0.023,244.5
2022-03-25T05:16:03,42.805,6.029,-0.025,-0.004,-0.011,100.0,101.0,100.0,13.4,1505.2,329.1,-0.7,1.8,2470.686,13.29,0.025,260.9
2022-03-25T05:19:03,42.805,6.029,-0.045,-0.001,0.006,100.0,101.0,102.0,13.4,1505.2,322.3,-0.8,1.9,2470.674,13.29,0.045,268.7
2022-03-25T05:22:03,42.805,6.029,-0.015,0.014,0.028,100.0,102.0,100.0,13.4,1505.2,327.7,-0.7,1.8,2470.652,13.29,0.02,313.0
2022-03-25T05:25:03,42.805,6.029,-0.009,-0.019,0.004,100.0,101.0,99.0,13.4,1505.2,328.5,-0.8,1.8,2470.678,13.29,0.021,205.3
2022-03-25T05:28:03,42.805,6.029,-0.036,0.0,-0.035,101.0,99.0,101.0,13.4,1505.2,332.7,-0.7,1.8,2470.644,13.29,0.036,270.0
2022-03-25T05:31:03,42.805,6.029,-0.018,-0.029,-0.037,101.0,99.0,100.0,13.4,1505.2,322.6,-0.8,1.8,2470.635,13.29,0.034,211.8
2022-03-25T05:34:03,42.805,6.029,-0.027,0.001,-0.014,101.0,99.0,100.0,13.4,1505.2,325.3,-0.7,1.8,2470.588,13.29,0.027,272.1
2022-03-25T05:37:03,42.805,6.029,-0.023,-0.003,0.009,100.0,101.0,101.0,13.4,1505.2,331.5,-0.8,1.8,2470.669,13.29,0.023,262.6
2022-03-25T05:40:03,42.805,6.029,-0.024,-0.007,-0.026,101.0,100.0,100.0,13.4,1505.2,326.9,-0.7,1.8,2470.673,13.29,0.025,253.7
2022-03-25T05:43:03,42.805,6.029,-0.052,-0.004,-0.02,101.0,101.0,100.0,13.3,1505.2,322.9,-0.8,1.8,2470.679,13.29,0.052,265.6
2022-03-25T05:46:03,42.805,6.029,-0.011,-0.015,-0.013,101.0,100.0,101.0,13.4,1505.2,327.7,-0.8,1.8,2470.623,13.29,0.018,216.3
2022-03-25T05:49:03,42.805,6.029,-0.048,0.005,0.014,101.0,100.0,100.0,13.3,1505.2,329.3,-0.8,1.8,2470.657,13.29,0.048,275.9
2022-03-25T05:52:03,42.805,6.029,-0.018,-0.017,-0.009,101.0,101.0,101.0,13.4,1505.2,327.9,-0.8,1.8,2470.67,13.29,0.024,226.6
2022-03-25T05:55:03,42.805,6.029,-0.019,-0.017,-0.007,101.0,101.0,101.0,13.4,1505.2,326.5,-0.8,1.8,2470.654,13.29,0.025,228.2
2022-03-25T05:58:03,42.805,6.029,0.0,-0.008,-0.005,100.0,102.0,100.0,13.4,1505.2,330.3,-0.7,1.8,2470.628,13.29,0.008,180.0
2022-03-25T06:04:03,42.805,6.029,-0.045,-0.01,-0.018,100.0,100.0,100.0,13.4,1505.2,329.2,-0.8,1.8,2470.663,13.29,0.046,257.5
2022-03-25T06:07:03,42.805,6.029,-0.021,-0.028,-0.018,100.0,102.0,102.0,13.4,1505.2,329.0,-0.7,1.9,2470.681,13.29,0.035,216.9
2022-03-25T06:10:03,42.805,6.029,-0.007,0.005,0.003,101.0,101.0,100.0,13.4,1505.2,327.9,-0.8,1.8,2470.686,13.29,0.008,305.5
2022-03-25T06:13:03,42.805,6.029,-0.031,-0.001,-0.006,101.0,101.0,100.0,13.4,1505.2,332.2,-0.7,1.8,2470.661,13.29,0.031,268.2
2022-03-25T06:16:03,42.805,6.029,-0.023,-0.021,-0.041,102.0,101.0,100.0,13.3,1505.2,327.7,-0.7,1.8,2470.658,13.29,0.031,227.6
2022-03-25T06:19:03,42.805,6.029,-0.034,0.025,0.036,101.0,100.0,101.0,13.4,1505.2,323.3,-0.8,1.8,2470.668,13.29,0.042,306.3
2022-03-25T06:22:03,42.805,6.029,-0.011,-0.016,-0.043,100.0,101.0,100.0,13.4,1505.2,332.4,-0.7,1.8,2470.613,13.29,0.019,214.5
2022-03-25T06:25:03,42.805,6.029,-0.015,-0.014,0.012,101.0,100.0,100.0,13.4,1505.2,325.7,-0.8,1.8,2470.629,13.29,0.02,227.0
2022-03-25T06:28:03,42.805,6.029,-0.03,-0.012,-0.001,99.0,104.0,100.0,13.4,1505.2,331.2,-0.8,1.8,2470.652,13.29,0.032,248.2
2022-03-25T06:31:03,42.805,6.029,-0.003,-0.011,0.003,99.0,101.0,101.0,13.4,1505.2,327.0,-0.8,1.8,2470.629,13.29,0.011,195.3
2022-03-25T06:34:03,42.805,6.029,-0.037,-0.002,-0.007,100.0,101.0,101.0,13.4,1505.2,327.4,-0.8,1.9,2470.668,13.29,0.037,266.9
2022-03-25T06:37:03,42.805,6.029,-0.004,-0.022,0.011,100.0,99.0,101.0,13.4,1505.2,330.8,-0.8,1.9,2470.625,13.29,0.022,190.3
2022-03-25T06:40:03,42.805,6.029,-0.008,-0.023,0.02,101.0,101.0,100.0,13.4,1505.2,326.0,-0.8,1.8,2470.656,13.29,0.024,199.2
2022-03-25T06:43:03,42.805,6.029,-0.037,-0.002,-0.004,100.0,102.0,101.0,13.4,1505.2,325.2,-0.8,1.8,2470.633,13.29,0.037,266.9
2022-03-25T06:46:03,42.805,6.029,-0.021,-0.01,0.026,101.0,102.0,100.0,13.4,1505.2,326.0,-0.8,1.8,2470.607,13.29,0.023,244.5
2022-03-25T06:49:03,42.805,6.029,-0.008,-0.029,-0.018,101.0,101.0,100.0,13.3,1505.2,329.9,-0.8,1.8,2470.649,13.29,0.03,195.4
2022-03-25T06:52:03,42.805,6.029,-0.013,-0.02,-0.02,100.0,101.0,101.0,13.4,1505.2,325.5,-0.8,1.8,2470.629,13.29,0.023,213.0
2022-03-25T06:55:03,42.805,6.029,-0.011,0.0,0.018,102.0,101.0,100.0,13.3,1505.2,329.8,-0.8,1.8,2470.617,13.29,0.011,270.0
2022-03-25T06:58:03,42.805,6.029,-0.003,-0.024,-0.03,101.0,99.0,100.0,13.3,1505.2,324.7,-0.8,1.8,2470.612,13.29,0.024,187.1
2022-03-25T07:04:03,42.805,6.029,0.006,-0.043,-0.061,101.0,101.0,100.0,13.4,1505.2,329.7,-0.7,1.8,2470.678,13.29,0.043,172.1
2022-03-25T07:07:03,42.805,6.029,-0.011,-0.006,0.019,101.0,100.0,100.0,13.4,1505.2,332.5,-0.8,1.8,2470.645,13.29,0.012,241.4
2022-03-25T07:10:03,42.805,6.029,-0.027,0.013,0.03,100.0,101.0,100.0,13.4,1505.2,327.8,-0.8,1.8,2470.641,13.29,0.029,295.7
2022-03-25T07:13:03,42.805,6.029,-0.018,-0.019,-0.006,101.0,100.0,101.0,13.4,1505.2,327.6,-0.8,1.8,2470.644,13.29,0.026,223.5
2022-03-25T07:16:03,42.805,6.029,-0.002,-0.013,-0.008,101.0,101.0,99.0,13.3,1505.2,332.6,-0.7,1.8,2470.677,13.29,0.013,188.7
2022-03-25T07:19:03,42.805,6.029,-0.014,-0.005,-0.006,99.0,101.0,100.0,13.3,1505.2,329.2,-0.8,1.8,2470.656,13.29,0.014,250.4
2022-03-25T07:22:03,42.805,6.029,-0.018,-0.005,-0.019,100.0,100.0,100.0,13.3,1505.2,331.3,-0.8,1.8,2470.62,13.29,0.018,254.5
2022-03-25T07:25:03,42.805,6.029,-0.014,-0.025,-0.018,102.0,100.0,100.0,13.4,1505.2,330.7,-0.8,1.8,2470.622,13.29,0.028,209.3
2022-03-25T07:28:03,42.805,6.029,0.003,0.006,0.024,100.0,100.0,100.0,13.4,1505.2,329.8,-0.8,1.9,2470.595,13.29,0.006,26.6
2022-03-25T07:31:03,42.805,6.029,-0.037,-0.01,-0.068,101.0,100.0,100.0,13.4,1505.2,330.2,-0.8,1.8,2470.633,13.29,0.038,254.9
2022-03-25T07:34:03,42.805,6.029,-0.024,-0.007,0.019,101.0,99.0,100.0,13.4,1505.2,323.1,-0.8,1.8,2470.636,13.29,0.025,253.7
2022-03-25T07:37:03,42.805,6.029,-0.02,0.006,0.013,101.0,107.0,100.0,13.3,1505.2,328.7,-0.7,1.8,2470.645,13.29,0.02,286.7
2022-03-25T07:40:03,42.805,6.029,-0.041,-0.021,-0.026,101.0,100.0,100.0,13.4,1505.2,328.7,-0.8,1.8,2470.649,13.29,0.046,242.9
2022-03-25T07:43:03,42.805,6.029,-0.018,-0.031,-0.023,101.0,100.0,100.0,13.3,1505.2,329.0,-0.8,1.8,2470.625,13.29,0.035,210.1
2022-03-25T07:46:03,42.805,6.029,-0.011,-0.024,-0.024,100.0,100.0,100.0,13.4,1505.2,326.8,-0.7,1.8,2470.619,13.29,0.026,204.6
2022-03-25T07:49:03,42.805,6.029,-0.023,-0.008,-0.017,101.0,101.0,100.0,13.4,1505.2,325.7,-0.8,1.9,2470.64,13.29,0.024,250.8
2022-03-25T07:52:03,42.805,6.029,-0.017,-0.031,-0.019,101.0,100.0,101.0,13.4,1505.2,322.5,-0.8,1.8,2470.625,13.29,0.035,208.7
2022-03-25T07:55:03,42.805,6.029,-0.018,-0.01,0.023,100.0,101.0,101.0,13.4,1505.2,323.9,-0.8,1.8,2470.631,13.29,0.02,240.9
2022-03-25T07:58:03,42.805,6.029,-0.005,-0.025,-0.015,99.0,101.0,101.0,13.4,1505.2,323.2,-0.7,1.8,2470.643,13.29,0.025,191.3
2022-03-25T08:04:03,42.805,6.029,-0.026,-0.012,-0.023,101.0,101.0,101.0,13.4,1505.2,328.4,-0.8,1.9,2470.668,13.29,0.028,245.2
2022-03-25T08:07:03,42.805,6.029,-0.012,-0.015,0.002,100.0,101.0,100.0,13.3,1505.2,325.1,-0.8,1.8,2470.678,13.29,0.019,218.7
2022-03-25T08:10:03,42.805,6.029,-0.029,-0.014,-0.015,102.0,101.0,100.0,13.3,1505.2,332.2,-0.7,1.8,2470.673,13.29,0.032,244.2
2022-03-25T08:13:03,42.805,6.029,-0.012,-0.025,-0.01,101.0,100.0,102.0,13.4,1505.2,325.1,-0.8,1.8,2470.662,13.29,0.027,205.6
2022-03-25T08:16:03,42.805,6.029,-0.002,-0.024,0.003,100.0,101.0,100.0,13.3,1505.2,332.2,-0.8,1.8,2470.656,13.29,0.024,184.8
2022-03-25T08:19:03,42.805,6.029,-0.017,-0.014,0.022,99.0,100.0,100.0,13.4,1505.2,323.4,-0.8,1.8,2470.635,13.29,0.022,230.5
2022-03-25T08:22:03,42.805,6.029,-0.024,0.006,0.022,103.0,99.0,99.0,13.3,1505.2,328.0,-0.8,1.8,2470.656,13.29,0.024,284.0
2022-03-25T08:25:03,42.805,6.029,-0.031,-0.012,0.001,100.0,101.0,100.0,13.3,1505.2,325.2,-0.7,1.8,2470.653,13.29,0.033,248.8
2022-03-25T08:28:03,42.805,6.029,-0.002,-0.019,0.013,99.0,101.0,100.0,13.4,1505.2,324.6,-0.8,1.9,2470.678,13.29,0.019,186.0
2022-03-25T08:31:03,42.805,6.029,-0.008,-0.003,0.029,101.0,100.0,101.0,13.4,1505.2,325.9,-0.7,1.8,2470.636,13.29,0.008,249.4
2022-03-25T08:34:03,42.805,6.029,-0.011,-0.009,0.004,101.0,101.0,100.0,13.4,1505.2,329.2,-0.7,1.8,2470.649,13.29,0.014,230.7
2022-03-25T08:37:03,42.805,6.029,-0.004,-0.011,-0.006,102.0,100.0,99.0,13.4,1505.2,327.0,-0.8,1.8,2470.661,13.29,0.011,200.0
2022-03-25T08:40:03,42.805,6.029,-0.022,-0.015,-0.002,99.0,100.0,102.0,13.4,1505.2,326.4,-0.8,1.8,2470.679,13.29,0.026,235.7
2022-03-25T08:43:03,42.805,6.029,-0.014,-0.006,-0.005,101.0,99.0,100.0,13.3,1505.2,324.2,-0.8,1.8,2470.654,13.29,0.015,246.8
2022-03-25T08:46:03,42.805,6.029,-0.031,-0.025,-0.03,101.0,101.0,100.0,13.4,1505.2,331.5,-0.8,1.8,2470.65,13.29,0.039,231.1
2022-03-25T08:49:03,42.805,6.029,-0.029,-0.02,-0.014,102.0,100.0,101.0,13.4,1505.2,329.2,-0.8,1.8,2470.672,13.29,0.035,235.4
2022-03-25T08:52:03,42.805,6.029,-0.015,-0.027,-0.006,102.0,98.0,100.0,13.4,1505.2,327.9,-0.7,1.8,2470.659,13.29,0.03,209.1
2022-03-25T08:55:03,42.805,6.029,-0.017,-0.026,-0.026,101.0,100.0,100.0,13.3,1505.2,323.7,-0.8,1.8,2470.654,13.29,0.031,213.2
2022-03-25T08:58:03,42.805,6.029,-0.029,-0.038,-0.026,102.0,98.0,100.0,13.4,1505.2,327.8,-0.7,1.8,2470.682,13.29,0.047,217.3
2022-03-25T09:04:03,42.805,6.029,-0.034,-0.006,0.015,101.0,100.0,100.0,13.4,1505.2,322.7,-0.7,1.8,2470.71,13.29,0.034,260.0
2022-03-25T09:07:03,42.805,6.029,-0.026,-0.015,-0.008,100.0,101.0,100.0,13.4,1505.2,332.5,-0.8,1.8,2470.704,13.29,0.03,240.0
2022-03-25T09:10:03,42.805,6.029,-0.022,-0.008,-0.02,100.0,101.0,101.0,13.4,1505.2,323.6,-0.8,1.8,2470.719,13.29,0.023,250.0
2022-03-25T09:13:03,42.805,6.029,0.002,-0.007,-0.006,102.0,100.0,100.0,13.4,1505.2,329.0,-0.8,1.8,2470.687,13.29,0.007,164.1
2022-03-25T09:16:03,42.805,6.029,-0.038,0.0,-0.001,99.0,100.0,100.0,13.4,1505.2,326.1,-0.8,1.9,2470.682,13.29,0.038,270.0
2022-03-25T09:19:03,42.805,6.029,-0.017,-0.003,0.042,101.0,100.0,100.0,13.4,1505.2,331.7,-0.8,1.8,2470.703,13.29,0.017,260.0
2022-03-25T09:22:03,42.805,6.029,-0.018,-0.004,-0.006,100.0,100.0,101.0,13.4,1505.2,326.5,-0.7,1.8,2470.731,13.29,0.018,257.5
2022-03-25T09:25:03,42.805,6.029,-0.005,-0.009,0.013,100.0,101.0,100.0,13.4,1505.2,323.9,-0.7,1.8,2470.686,13.29,0.01,209.1
2022-03-25T09:28:03,42.805,6.029,-0.024,-0.018,-0.02,100.0,100.0,100.0,13.4,1505.2,327.1,-0.8,1.8,2470.661,13.29,0.03,233.1
2022-03-25T09:31:03,42.805,6.029,-0.007,-0.005,0.018,101.0,101.0,101.0,13.4,1505.2,332.4,-0.7,1.8,2470.695,13.29,0.008,234.5
2022-03-25T09:34:03,42.805,6.029,-0.008,-0.008,-0.001,100.0,101.0,100.0,13.4,1505.2,328.1,-0.8,1.8,2470.683,13.29,0.011,225.0
2022-03-25T09:37:03,42.805,6.029,-0.015,-0.004,-0.014,100.0,99.0,101.0,13.4,1505.2,329.8,-0.7,1.8,2470.676,13.29,0.015,255.1
2022-03-25T09:40:03,42.805,6.029,0.016,-0.014,0.019,100.0,100.0,100.0,13.4,1505.2,329.4,-0.8,1.8,2470.648,13.29,0.021,131.2
2022-03-25T09:43:03,42.805,6.029,-0.015,-0.011,-0.005,101.0,100.0,101.0,13.3,1505.2,325.1,-0.7,1.8,2470.691,13.29,0.018,233.7
2022-03-25T09:46:03,42.805,6.029,-0.005,-0.011,-0.011,100.0,101.0,101.0,13.3,1505.2,329.4,-0.7,1.8,2470.693,13.29,0.012,204.4
2022-03-25T09:49:03,42.805,6.029,-0.007,-0.009,0.002,99.0,100.0,101.0,13.3,1505.2,327.0,-0.7,1.8,2470.725,13.29,0.011,217.9
2022-03-25T09:52:03,42.805,6.029,0.0,-0.013,-0.017,100.0,100.0,100.0,13.3,1505.2,325.6,-0.8,1.8,2470.698,13.29,0.013,180.0